, CO

(GMT )
Cottonwood Pass

Weather History for K7BM - December, 2013

Change the Weather History Date:

Sunday, December 22, 2013

  Actual Average Record
Temperature  
Mean Temperature - -  
Max Temperature - - - ()
Min Temperature - - - ()
Moisture  
Dew Point -    
Average Humidity    
Maximum Humidity    
Minimum Humidity    
Precipitation  
Precipitation 0.00 in - - ()
Sea Level Pressure  
Sea Level Pressure 29.93 in    
Wind  
Wind Speed 12 mph (WNW)    
Max Wind Speed 37 mph    
Max Gust Speed 54 mph    
Visibility 10 miles    
Events      
T = Trace of Precipitation, MM = Missing Value Source: NWS Daily Summary

Daily Weather History Graph

Daily Weather History Graph

Search for Another Location

Airport or City:

Trip Planner

Search our weather history database for the weather conditions in past years. The results will help you decide how hot, cold, wet, or windy it might be!

Date:

Astronomy

Dec. 22, 2013 Rise Set
Actual Time 7:20 AM MST 4:47 PM MST
Civil Twilight 6:50 AM MST 5:17 PM MST
Nautical Twilight 6:16 AM MST 5:50 PM MST
Astronomical Twilight 5:44 AM MST 6:23 PM MST
Moon 9:59 PM MST (12/22) 10:20 AM MST (12/22)
Length of Visible Light 10h 26m
Length of Day
9h 26m
Waning Gibbous, 76% of the Moon is Illuminated
Dec 22
Waning Gibbous
Dec 25
Last Quarter
Jan 1
New
Jan 7
First Quarter
Jan 15
Full

Hourly Weather History & Observations

Time (MST) Temp. Dew Point Humidity Pressure Visibility Wind Dir Wind Speed Gust Speed Precip Events Conditions
12:14 AM - - N/A% 29.77 in 10.0 mi NW 9.2 mph 17.3 mph N/A   Clear
12:34 AM - - N/A% 29.77 in 10.0 mi WNW 10.4 mph 18.4 mph N/A   Clear
12:54 AM - - N/A% 29.78 in 10.0 mi West 13.8 mph 18.4 mph N/A   Clear
1:14 AM - - N/A% 29.78 in 10.0 mi NW 10.4 mph 17.3 mph N/A   Clear
1:34 AM - - N/A% 29.79 in 10.0 mi WNW 13.8 mph 21.9 mph N/A   Clear
1:54 AM - - N/A% 29.80 in 10.0 mi West 13.8 mph 20.7 mph N/A   Clear
2:14 AM - - N/A% 29.81 in 10.0 mi WNW 8.1 mph 19.6 mph N/A   Clear
2:34 AM - - N/A% 29.81 in 10.0 mi North 6.9 mph 25.3 mph N/A   Clear
2:53 AM - - N/A% 29.82 in 10.0 mi NNW 9.2 mph 18.4 mph N/A   Clear
3:13 AM - - N/A% 29.83 in 10.0 mi WNW 13.8 mph 19.6 mph N/A   Clear
3:33 AM - - N/A% 29.84 in 10.0 mi NW 6.9 mph 20.7 mph N/A   Clear
3:54 AM - - N/A% 29.84 in 10.0 mi NW 9.2 mph 20.7 mph N/A   Clear
4:14 AM - - N/A% 29.84 in 10.0 mi NW 10.4 mph 16.1 mph N/A   Clear
4:34 AM - - N/A% 29.84 in 10.0 mi NNW 4.6 mph - N/A   Clear
4:53 AM - - N/A% 29.85 in 10.0 mi WNW 9.2 mph - N/A   Clear
5:14 AM - - N/A% 29.85 in 10.0 mi WNW 16.1 mph 23.0 mph N/A   Clear
5:34 AM - - N/A% 29.86 in 10.0 mi WNW 12.7 mph 29.9 mph N/A   Clear
5:54 AM - - N/A% 29.87 in 10.0 mi West 19.6 mph 25.3 mph N/A   Clear
6:14 AM - - N/A% 29.87 in 10.0 mi NW 10.4 mph 26.5 mph N/A   Clear
6:34 AM - - N/A% 29.88 in 10.0 mi NW 9.2 mph 16.1 mph N/A   Clear
6:54 AM - - N/A% 29.89 in 10.0 mi WNW 13.8 mph 25.3 mph N/A   Clear
7:14 AM - - N/A% 29.91 in 10.0 mi Calm Calm - N/A   Clear
7:33 AM - - N/A% 29.91 in 10.0 mi West 4.6 mph - N/A   Clear
7:53 AM - - N/A% 29.92 in 10.0 mi Calm Calm - N/A   Clear
8:14 AM - - N/A% 29.94 in 10.0 mi South 4.6 mph - N/A   Clear
8:34 AM - - N/A% 29.93 in 10.0 mi SSE 9.2 mph - N/A   Clear
8:54 AM - - N/A% 29.94 in 10.0 mi SSE 8.1 mph - N/A   Clear
9:14 AM - - N/A% 29.95 in 10.0 mi SE 10.4 mph - N/A   Clear
9:34 AM - - N/A% 29.96 in 10.0 mi SE 8.1 mph - N/A   Clear
9:54 AM - - N/A% 29.96 in 10.0 mi SE 9.2 mph - N/A   Clear
10:14 AM - - N/A% 29.97 in 10.0 mi SSE 6.9 mph - N/A   Clear
10:34 AM - - N/A% 29.98 in 10.0 mi SSE 4.6 mph - N/A   Clear
10:54 AM - - N/A% 29.98 in 10.0 mi West 3.5 mph - N/A   Clear
11:14 AM - - N/A% 29.97 in 10.0 mi WSW 11.5 mph 23.0 mph N/A   Clear
11:33 AM - - N/A% 29.96 in 10.0 mi West 17.3 mph 25.3 mph N/A   Clear
11:54 AM - - N/A% 29.95 in 10.0 mi West 17.3 mph 28.8 mph N/A   Clear
12:14 PM - - N/A% 29.95 in 10.0 mi West 12.7 mph 25.3 mph N/A   Clear
12:34 PM - - N/A% 29.94 in 10.0 mi West 13.8 mph 24.2 mph N/A   Mostly Cloudy
12:54 PM - - N/A% 29.94 in 10.0 mi West 15.0 mph 33.4 mph N/A   Overcast
1:14 PM - - N/A% 29.94 in 10.0 mi West 11.5 mph 27.6 mph N/A   Overcast
1:34 PM - - N/A% 29.94 in 10.0 mi West 10.4 mph 20.7 mph N/A   Overcast
1:54 PM - - N/A% 29.93 in 10.0 mi West 16.1 mph 29.9 mph N/A   Overcast
2:14 PM - - N/A% 29.93 in 10.0 mi WSW 17.3 mph 27.6 mph N/A   Mostly Cloudy
2:34 PM - - N/A% 29.94 in 10.0 mi West 17.3 mph 29.9 mph N/A   Scattered Clouds
2:54 PM - - N/A% 29.95 in 10.0 mi West 6.9 mph 21.9 mph N/A   Mostly Cloudy
3:14 PM - - N/A% 29.96 in 10.0 mi West 11.5 mph 23.0 mph N/A   Overcast
3:34 PM - - N/A% 29.96 in 10.0 mi West 8.1 mph 20.7 mph N/A   Overcast
3:54 PM - - N/A% 29.98 in 10.0 mi Calm Calm - N/A   Overcast
4:14 PM - - N/A% 29.98 in 10.0 mi NW 6.9 mph - N/A   Overcast
4:34 PM - - N/A% 29.98 in 10.0 mi WNW 10.4 mph 18.4 mph N/A   Overcast
4:54 PM - - N/A% 29.98 in 10.0 mi North 8.1 mph - N/A   Overcast
5:14 PM - - N/A% 29.99 in 10.0 mi North 10.4 mph 24.2 mph N/A   Overcast
5:34 PM - - N/A% 30.00 in 10.0 mi NNW 10.4 mph 20.7 mph N/A   Overcast
5:54 PM - - N/A% 30.00 in 10.0 mi NW 11.5 mph 33.4 mph N/A   Overcast
6:14 PM - - N/A% 30.00 in 10.0 mi WNW 20.7 mph 36.8 mph N/A   Overcast
6:34 PM - - N/A% 30.00 in 10.0 mi NW 18.4 mph 39.1 mph N/A   Overcast
6:54 PM - - N/A% 29.96 in 10.0 mi WNW 17.3 mph 35.7 mph N/A   Mostly Cloudy
7:14 PM - - N/A% 29.95 in 10.0 mi WNW 28.8 mph 42.6 mph N/A   Clear
7:34 PM - - N/A% 29.96 in 10.0 mi West 31.1 mph 47.2 mph N/A   Clear
7:54 PM - - N/A% 29.97 in 10.0 mi West 24.2 mph 46.0 mph N/A   Scattered Clouds
8:14 PM - - N/A% 29.98 in 10.0 mi West 28.8 mph 48.3 mph N/A   Clear
8:34 PM - - N/A% 29.98 in 10.0 mi West 36.8 mph 54.1 mph N/A   Mostly Cloudy
8:53 PM - - N/A% 29.99 in 10.0 mi West 23.0 mph 47.2 mph N/A   Mostly Cloudy
9:14 PM - - N/A% 30.00 in 10.0 mi WNW 12.7 mph 35.7 mph N/A   Mostly Cloudy
9:34 PM - - N/A% 30.00 in 10.0 mi NNW 8.1 mph 32.2 mph N/A   Mostly Cloudy
9:54 PM - - N/A% 30.00 in 10.0 mi WNW 17.3 mph 38.0 mph N/A   Mostly Cloudy
10:14 PM - - N/A% 30.01 in 10.0 mi WNW 19.6 mph 38.0 mph N/A   Mostly Cloudy
10:34 PM - - N/A% 30.02 in 10.0 mi West 29.9 mph 42.6 mph N/A   Scattered Clouds
10:54 PM - - N/A% 30.03 in 10.0 mi West 31.1 mph 49.5 mph N/A   Mostly Cloudy
11:14 PM - - N/A% 30.06 in 10.0 mi West 20.7 mph 43.7 mph N/A   Mostly Cloudy
11:33 PM - - N/A% 30.07 in 10.0 mi WNW 19.6 mph 33.4 mph N/A   Overcast
11:53 PM - - N/A% 30.07 in 10.0 mi NNW 5.8 mph 27.6 mph N/A   Overcast